Regional Weather Roundup
Issued by NWS Spokane, WA

Home | Current Version | Previous Version | Text Only | Print | Product List | Glossary On
Versions: 1 2 3 4 5 6 7 8 9 10 11 12 13 14 15 16 17 18 19 20 21 22 23 24 25 26 27 28 29 30 31 32 33 34 35 36 37 38 39 40 41 42 43 44 45 46 47 48 49 50
000
NZUS01 KOTX 210225
RWROTX

Eastern Washington/Northern Idaho Roundup
National Weather Service, Spokane WA
600 PM PST TUE FEB 20 2018

Note: "fair" indicated few or no clouds below 12,000 feet with no
significant weather and/or obstructions to visibility.

...Northeast Washington and Northern Idaho Panhandle...

CITY           SKY/WX    TMP DP  RH WIND       PRES   REMARKS
Spokane Intl   MOCLDY    20   5  52 CALM      30.18R
Spokane Downto CLOUDY    22   7  52 N5        30.21R WCI  16
Coeur d Alene  CLOUDY    15   7  70 NE3       30.18R
Deer Park      CLOUDY    17   7  64 N3        30.20R
Sandpoint        N/A     19  12  73 SW3       30.21R
Bonners Ferry  CLOUDY    16   9  73 CALM      30.18R

...Southeast Washington and southern Idaho Panhandle...

CITY           SKY/WX    TMP DP  RH WIND       PRES   REMARKS
Walla Walla    CLOUDY    33  16  49 CALM      30.18R
Pullman/Moscow CLOUDY    21  12  68 E9        30.16R WCI  11
Lewiston       CLOUDY    27  12  53 NE10      30.21R WCI  17
Lowell           N/A     24  14  65 NW5       30.25R WCI  18
Grangeville    CLOUDY    18   9  68 SE8       30.10R WCI   7

...Columbia Basin...

CITY           SKY/WX    TMP DP  RH WIND       PRES   REMARKS
Ephrata        CLOUDY    27  11  51 NE7       30.22R WCI  19
Moses Lake     CLOUDY    28  16  60 NE7       30.23R WCI  21
Pasco          CLOUDY    32  18  56 NE6       30.24R WCI  26
Richland       CLOUDY    32  21  62 N6        30.26R WCI  27
Hermiston      CLOUDY    32  21  64 N9        30.19R WCI  24
Pendleton      CLOUDY    30  18  60 NE10      30.14R WCI  21

...East Slopes Cascades...

CITY           SKY/WX    TMP DP  RH WIND       PRES   REMARKS
The Dalles     LGT SNOW  30  28  92 CALM      30.21R VSB 1
Yakima         LGT SNOW  28  24  85 E6        30.21R VSB 3/4 WCI  22
Ellensburg     LGT SNOW  25  16  68 E8        30.18R WCI  16
Stampede Pass  CLOUDY    14  12  92 VRB5      30.00S FOG     WCI   6
Wenatchee      LGT SNOW  23  16  74 W6        30.25R WCI  16
Omak           PTCLDY    17   8  67 NW6       30.29R WCI   9
Sunnyside      LGT SNOW  26  22  87 NW3       30.23R

...Southern British Columbia...

CITY           SKY/WX    TMP DP  RH WIND       PRES   REMARKS

...Western Montana...

CITY           SKY/WX    TMP DP  RH WIND       PRES   REMARKS
Kalispell      CLOUDY    10   4  76 CALM      30.15R
Missoula       CLOUDY    13   0  56 NW3       30.14R

...Neighboring Cities...

CITY           SKY/WX    TMP DP  RH WIND       PRES   REMARKS
Seattle        MOCLDY    34  24  67 N13       30.20R WCI  25
Portland       LGT SNOW  33  33 100 SE9       30.14S VSB 1   WCI  25
Boise          CLEAR     24   2  38 SE8       30.14S WCI  15
Great Falls    CLEAR     -2 -11  65 CALM      30.08R



USA.gov is the U.S. government's official web portal to all federal, state and local government web resources and services.